Regional Weather Roundup
Issued by NWS

Home | Current Version | Previous Version | Text Only | Print | Product List | Glossary On
Versions: 1 2 3 4 5 6 7 8 9 10 11 12 13 14 15 16 17 18 19 20 21 22 23 24 25 26 27 28 29 30 31 32 33 34 35 36 37 38 39 40 41 42 43 44 45 46 47 48 49 50
000
ASCA42 TJSJ 040910
RWRPR
PUERTO RICO/U.S. VIRGIN ISLANDS HOURLY WEATHER ROUNDUP
NATIONAL WEATHER SERVICE SAN JUAN PR
500 AM AST SAT JUL 04 2015

PRZ001-004-041000-
PUERTO RICO

CITY           SKY/WX    TMP DP  RH WIND       PRES   REMARKS
SAN JUAN LMM   PTCLDY    81  75  83 E14G21    30.06R
PONCE          CLEAR     81  72  74 E9        29.96S
CEIBA          CLOUDY    81  73  78 E7        30.08R
$$

PRZ006-007-041000-
U.S. VIRGIN ISLANDS

CITY           SKY/WX    TMP DP  RH WIND       PRES   REMARKS
CHARLOTTE AMA  CLOUDY    82  73  74 E14G24    30.05R
CHRISTIANSTED  LGT RAIN  79  73  83 E13       30.05R
$$

HOURLY WEATHER ROUNDUP FOR THE NEWS MEDIA

CITY           SKY/WX    TMP DP  RH WIND       PRES   REMARKS
ORLANDO        PTCLDY    75  70  84 CALM      30.09R
NEW YORK       CLOUDY    70  60  70 CALM      29.96F
NEWARK         LGT RAIN  71  62  73 E3        29.95F
CHICAGO        CLEAR     61  54  77 W3        29.95S
HARTFORD       FOG       57  56  96 CALM      30.00S VSB 3/4
BOSTON         MOCLDY    64  58  80 SW5       30.00F
DALLAS         MOCLDY    81  72  74 SW8       29.93F
PHILADELPHIA   CLOUDY    70  66  87 NE3       29.92F
LOS ANGELES    CLOUDY    62  60  93 SW6       29.89S
WASHINGTON DC  CLOUDY    70  66  87 CALM      29.89S



USA.gov is the U.S. government's official web portal to all federal, state and local government web resources and services.